{"data":{"norad_id":65828,"intl_designator":"2025-221F","name":"STARLINK-35396","alt_names":[],"object_type":"PAYLOAD","status":"ACTIVE","operator":null,"country":"US","launch_date":"2025-09-29","launch_site_code":"AFWTR","launch_vehicle":null,"mission":null,"orbit_class":"UNKNOWN","rcs_meters":null,"size_class":null,"mass_kg":null,"dimensions":null,"purposes":["comms"],"wikipedia_slug":null,"has_3d_model":false,"image_url":null,"decayed_at":null,"tle_current":{"epoch":"2026-09-20T23:08:55.645152Z","epoch_age_seconds":65970,"freshness":"FRESH","line1":"1 65828U 25221F   26263.96453293  .00016727  00000+0  50511-3 0  9998","line2":"2 65828  53.1588 257.5720 0001557  85.4734 274.6447 15.34398234 56038","mean_motion":15.34398234,"eccentricity":0.0001557,"inclination_deg":53.1588,"raan_deg":257.572,"arg_perigee_deg":85.4734,"mean_anomaly_deg":274.6447,"bstar":0.00050511,"rev_number":5603,"period_min":93.847866094455,"perigee_km":461.64336949365,"apogee_km":463.77360877897,"semimajor_km":6840.8454891363,"source":"CELESTRAK","updated_at":"2026-09-21T09:00:35.719903Z"}}}